Hourly Data Report for April 07, 2020

MIRAMICHI RCS
NEW BRUNSWICK
Current Station Operator: ECCC - MSC

47°00'34.000" N
65°27'54.000" W
33.00 m
8100989
71744
ACQ

Download Data

Hourly Data (April 2020)
Hourly Data Report for April 7, 2020
TIME
LST
Temp Definition
°C
Dew Point Definition
°C
Rel Hum Definition
%
Precip. Amount Definition
mm

Wind Dir Definition
10's deg

Wind Spd Definition
km/h
Visibility Definition
km
Stn Press Definition
kPa
Hmdx Definition


Wind Chill Definition


Weather Definition


00:00 -1.3 -8.4 58 LegendMM 29 11   100.22   -5 LegendNANA
01:00 -1.1 -9.0 55 LegendMM 29 11   100.24   -5 LegendNANA
02:00 -1.9 -8.3 61 LegendMM 32 5   100.23   -4 LegendNANA
03:00 -1.7 -7.7 64 LegendMM 30 9   100.23   -5 LegendNANA
04:00 -2.5 -7.6 68 LegendMM 28 9   100.24   -6 LegendNANA
05:00 -2.6 -8.3 65 LegendMM 30 9   100.25   -6 LegendNANA
06:00 -3.4 -8.7 67 LegendMM 29 10   100.29   -7 LegendNANA
07:00 -2.3 -8.9 60 LegendMM 30 12   100.37   -7 LegendNANA
08:00 -0.8 -9.2 53 LegendMM 31 14   100.40   -5 LegendNANA
09:00 0.5 -9.4 48 LegendMM 31 17   100.39     LegendNANA
10:00 1.9 -9.6 42 LegendMM 32 12   100.39     LegendNANA
11:00 2.0 -11.0 38 LegendMM 31 12   100.35     LegendNANA
12:00 3.3 -11.7 32 LegendMM 31 12   100.30     LegendNANA
13:00 3.5 -11.2 33 LegendMM 32 12   100.27     LegendNANA
14:00 3.5 -11.1 34 LegendMM 32 10   100.21     LegendNANA
15:00 4.1 -10.8 33 LegendMM 30 10   100.15     LegendNANA
16:00 4.5 -11.3 31 LegendMM 21 8   100.10     LegendNANA
17:00 4.2 -11.9 30 LegendMM 30 9   100.10     LegendNANA
18:00 4.1 -11.6 31 LegendMM 29 12   100.11     LegendNANA
19:00 2.8 -11.4 34 LegendMM 30 10   100.14     LegendNANA
20:00 1.1 -10.7 41 LegendMM 30 5   100.20     LegendNANA
21:00 0.4 -9.6 47 LegendMM 25 6   100.19     LegendNANA
22:00 0.9 -9.4 46 LegendMM 27 9   100.16     LegendNANA
23:00 -0.3 -9.1 51 LegendMM 35 4   100.15   -2 LegendNANA

Notes on Data Quality.

Legend

  • E = Estimated
  • M = Missing
  • NA = Not Available*
  • [empty] = Indicates an unobserved value
Date modified: